QPF
0.00 0.00 0.02 0.01 0.00 0.00 0.00 0.00 0.01 0.01 0.00 0.00 0.00 0.00 0.00 0.00 0.00 0.00 0.00 0.00 0.00 0.00 0.00 0.00 0.00 0.02 0.01 0.00 0.00 0.00 0.01 0.00 0.00 0.00 0.00 0.00 0.00 0.00 0.00 0.00 0.00 0.00 0.00
0.00 0.00 0.02 0.02 0.00 0.00 0.00 0.01 0.02 0.00 0.00 0.00 0.00 0.00 0.00 0.00 0.00 0.00 0.00 0.01 0.00 0.00 0.00 0.00 0.01 0.00 0.00 0.00 0.00 0.00 0.00 0.00 0.00 0.00 0.00 0.00 0.00 0.00 0.00 0.00 0.00 0.00 0.00
0.00 0.01 0.01 0.02 0.01 0.00 0.00 0.00 0.01 0.01 0.01 0.01 0.01 0.00 0.00 0.00 0.00 0.00 0.00 0.01 0.00 0.00 0.00 0.02 0.01 0.01 0.00 0.00 0.00 0.00 0.00 0.00 0.00 0.00 0.00 0.02 0.03 0.02 0.01 0.01 0.03 0.02 0.03
0.00 0.02 0.01 0.04 0.01 0.01 0.00 0.00 0.00 0.01 0.01 0.01 0.01 0.00 0.00 0.00 0.00 0.00 0.01 0.04 0.01 0.00 0.00 0.00 0.00 0.00 0.00 0.00 0.00 0.00 0.00 0.00 0.00 0.00 0.00 0.00 0.00 0.00 0.00 0.00 0.00 0.00 0.00
0.00 0.02 0.01 0.03 0.03 0.01 0.00 0.00 0.00 0.00 0.00 0.00 0.00 0.00 0.00 0.00 0.00 0.00 0.03 0.09 0.01 0.00 0.00 0.00 0.00 0.00 0.00 0.00 0.00 0.00 0.00 0.00 0.00 0.00 0.00 0.00 0.00 0.00 0.00 0.00 0.00 0.00 0.00
0.01 0.03 0.02 0.07 0.10 0.03 0.01 0.00 0.00 0.00 0.00 0.00 0.00 0.00 0.00 0.00 0.00 0.02 0.03 0.03 0.00 0.00 0.00 0.00 0.00 0.00 0.00 0.00 0.00 0.00 0.00 0.00 0.00 0.00 0.00 0.00 0.00 0.00 0.00 0.00 0.00 0.00 0.00
0.01 0.03 0.02 0.07 0.11 0.07 0.00 0.00 0.00 0.00 0.00 0.00 0.00 0.00 0.00 0.00 0.00 0.01 0.03 0.01 0.00 0.00 0.00 0.00 0.00 0.00 0.00 0.00 0.00 0.00 0.00 0.00 0.00 0.00 0.00 0.00 0.00 0.00 0.00 0.00 0.00 0.00 0.00
0.00 0.03 0.05 0.03 0.10 0.14 0.09 0.05 0.02 0.00 0.00 0.00 0.01 0.00 0.00 0.01 0.02 0.00 0.01 0.01 0.00 0.00 0.00 0.00 0.00 0.00 0.00 0.00 0.00 0.00 0.00 0.00 0.00 0.00 0.00 0.00 0.00 0.00 0.00 0.00 0.00 0.00 0.00
0.00 0.02 0.10 0.08 0.05 0.09 0.15 0.12 0.07 0.03 0.02 0.02 0.01 0.02 0.03 0.03 0.06 0.03 0.02 0.01 0.00 0.00 0.00 0.00 0.00 0.00 0.00 0.00 0.00 0.00 0.00 0.00 0.00 0.00 0.00 0.00 0.00 0.00 0.00 0.00 0.00 0.00 0.00
0.00 0.00 0.01 0.05 0.06 0.05 0.05 0.08 0.08 0.06 0.05 0.03 0.02 0.01 0.03 0.02 0.02 0.13 0.16 0.01 0.00 0.00 0.00 0.00 0.00 0.00 0.00 0.00 0.00 0.00 0.00 0.00 0.00 0.00 0.00 0.00 0.00 0.00 0.00 0.00 0.00 0.00 0.00
0.00 0.00 0.00 0.01 0.04 0.05 0.04 0.04 0.07 0.08 0.12 0.08 0.03 0.02 0.02 0.01 0.01 0.06 0.14 0.06 0.00 0.00 0.00 0.00 0.00 0.00 0.00 0.00 0.00 0.00 0.00 0.00 0.00 0.00 0.00 0.00 0.00 0.00 0.00 0.00 0.00 0.00 0.00
0.00 0.00 0.00 0.00 0.01 0.06 0.04 0.01 0.01 0.05 0.04 0.03 0.04 0.04 0.01 0.02 0.02 0.02 0.05 0.06 0.00 0.00 0.00 0.00 0.00 0.00 0.00 0.00 0.00 0.00 0.00 0.00 0.00 0.00 0.00 0.00 0.00 0.00 0.00 0.00 0.00 0.00 0.00
0.00 0.00 0.00 0.00 0.00 0.01 0.06 0.07 0.02 0.00 0.01 0.01 0.01 0.02 0.02 0.01 0.02 0.02 0.06 0.06 0.01 0.00 0.00 0.00 0.00 0.00 0.00 0.00 0.00 0.00 0.00 0.00 0.00 0.00 0.00 0.00 0.00 0.00 0.00 0.00 0.00 0.00 0.00
0.00 0.00 0.00 0.00 0.00 0.00 0.03 0.04 0.02 0.02 0.00 0.00 0.00 0.00 0.01 0.01 0.01 0.01 0.02 0.03 0.03 0.00 0.00 0.00 0.00 0.00 0.00 0.00 0.00 0.00 0.00 0.00 0.00 0.00 0.00 0.00 0.00 0.00 0.00 0.00 0.00 0.00 0.00
0.00 0.00 0.00 0.00 0.00 0.00 0.01 0.01 0.02 0.01 0.01 0.00 0.00 0.00 0.00 0.00 0.00 0.00 0.00 0.01 0.02 0.00 0.00 0.00 0.00 0.00 0.00 0.00 0.00 0.00 0.00 0.00 0.00 0.00 0.00 0.00 0.00 0.00 0.00 0.00 0.00 0.00 0.00
0.00 0.00 0.00 0.00 0.00 0.00 0.00 0.00 0.00 0.02 0.02 0.02 0.00 0.00 0.00 0.00 0.00 0.01 0.00 0.00 0.00 0.00 0.00 0.00 0.00 0.00 0.00 0.00 0.00 0.00 0.00 0.00 0.00 0.00 0.00 0.00 0.00 0.00 0.00 0.00 0.01 0.02 0.03
0.00 0.00 0.00 0.00 0.00 0.00 0.00 0.00 0.00 0.00 0.02 0.02 0.00 0.00 0.01 0.00 0.02 0.03 0.03 0.01 0.00 0.00 0.00 0.00 0.00 0.00 0.00 0.00 0.00 0.00 0.00 0.00 0.00 0.00 0.00 0.00 0.00 0.00 0.00 0.00 0.00 0.00 0.00
0.00 0.00 0.00 0.00 0.00 0.00 0.00 0.00 0.00 0.00 0.00 0.00 0.00 0.00 0.00 0.01 0.02 0.03 0.05 0.01 0.00 0.01 0.01 0.01 0.00 0.00 0.00 0.00 0.00 0.00 0.00 0.00 0.00 0.00 0.00 0.00 0.00 0.00 0.00 0.00 0.00 0.00 0.00
0.00 0.00 0.00 0.00 0.00 0.00 0.00 0.00 0.00 0.00 0.00 0.00 0.00 0.00 0.00 0.00 0.01 0.03 0.04 0.03 0.01 0.01 0.02 0.02 0.01 0.00 0.00 0.00 0.00 0.00 0.00 0.00 0.00 0.00 0.00 0.00 0.00 0.00 0.00 0.00 0.00 0.00 0.00
0.00 0.00 0.00 0.00 0.00 0.00 0.00 0.00 0.00 0.00 0.01 0.01 0.00 0.00 0.00 0.00 0.00 0.00 0.00 0.02 0.02 0.02 0.02 0.03 0.03 0.01 0.00 0.00 0.00 0.00 0.00 0.00 0.00 0.00 0.00 0.00 0.00 0.00 0.00 0.00 0.00 0.00 0.00
0.00 0.00 0.00 0.00 0.00 0.00 0.00 0.00 0.00 0.00 0.00 0.02 0.01 0.00 0.00 0.00 0.00 0.00 0.00 0.00 0.00 0.01 0.02 0.02 0.00 0.00 0.00 0.00 0.00 0.00 0.00 0.00 0.00 0.00 0.00 0.00 0.00 0.00 0.00 0.00 0.00 0.00 0.00
0.00 0.00 0.00 0.00 0.00 0.00 0.00 0.00 0.00 0.00 0.00 0.02 0.04 0.01 0.00 0.00 0.00 0.00 0.00 0.00 0.00 0.00 0.00 0.00 0.00 0.00 0.00 0.00 0.00 0.00 0.00 0.00 0.00 0.00 0.00 0.00 0.00 0.00 0.00 0.00 0.00 0.00 0.00
0.00 0.00 0.00 0.00 0.00 0.00 0.00 0.00 0.00 0.00 0.00 0.01 0.01 0.02 0.00 0.00 0.00 0.00 0.00 0.00 0.00 0.00 0.00 0.00 0.00 0.00 0.00 0.00 0.00 0.00 0.00 0.00 0.00 0.00 0.00 0.00 0.00 0.00 0.00 0.01 0.02 0.02 0.01
0.00 0.00 0.00 0.00 0.00 0.00 0.00 0.00 0.00 0.00 0.00 0.00 0.00 0.00 0.00 0.01 0.00 0.01 0.00 0.00 0.00 0.00 0.00 0.00 0.00 0.00 0.00 0.00 0.00 0.00 0.00 0.00 0.01 0.01 0.00 0.00 0.01 0.01 0.02 0.01 0.00 0.00 0.02
0.00 0.00 0.00 0.00 0.00 0.00 0.00 0.00 0.00 0.00 0.00 0.01 0.01 0.00 0.00 0.00 0.00 0.00 0.01 0.00 0.01 0.00 0.00 0.00 0.00 0.00 0.00 0.00 0.00 0.00 0.00 0.00 0.00 0.01 0.00 0.00 0.02 0.00 0.00 0.00 0.00 0.00 0.00
0.00 0.00 0.00 0.00 0.00 0.00 0.00 0.00 0.00 0.00 0.00 0.01 0.01 0.00 0.00 0.00 0.00 0.00 0.00 0.00 0.00 0.00 0.00 0.00 0.01 0.01 0.00 0.00 0.00 0.00 0.00 0.00 0.01 0.01 0.02 0.01 0.03 0.02 0.01 0.00 0.00 0.00 0.00
MSLP
1011.68 1011.81 1012.33 1012.59 1013.04 1013.12 1013.17 1013.43 1013.59 1013.78 1014.09 1014.32 1014.53 1014.80 1014.95 1015.13 1015.28 1015.42 1015.58 1015.68 1015.71 1015.82 1015.86 1016.01 1016.05 1016.11 1016.19 1016.30 1016.45 1016.47 1016.57 1016.65 1016.71 1016.74 1016.68 1016.62 1016.68 1016.80 1016.89 1016.82 1016.44 1016.34 1016.71
1011.85 1011.75 1012.38 1012.63 1013.06 1013.25 1013.29 1013.47 1013.70 1013.92 1014.22 1014.39 1014.68 1014.89 1015.14 1015.31 1015.40 1015.55 1015.65 1015.77 1015.85 1015.88 1015.99 1016.10 1016.26 1016.37 1016.49 1016.68 1016.80 1016.81 1016.95 1017.08 1017.18 1017.10 1017.00 1016.98 1017.02 1017.05 1017.09 1017.05 1016.77 1016.91 1016.99
1011.76 1011.59 1012.22 1012.68 1013.03 1013.36 1013.51 1013.61 1013.84 1014.04 1014.30 1014.50 1014.75 1015.01 1015.19 1015.44 1015.50 1015.61 1015.75 1015.85 1015.92 1016.07 1016.19 1016.25 1016.45 1016.59 1016.90 1017.06 1017.11 1017.20 1017.26 1017.35 1017.45 1017.36 1017.04 1016.64 1017.01 1017.31 1017.35 1017.39 1017.32 1017.24 1017.33
1011.74 1011.63 1011.93 1012.64 1013.01 1013.38 1013.59 1013.73 1013.96 1014.19 1014.42 1014.62 1014.83 1015.08 1015.23 1015.46 1015.63 1015.72 1015.83 1015.95 1015.96 1016.18 1016.35 1016.55 1016.79 1016.96 1017.22 1017.40 1017.47 1017.56 1017.64 1017.66 1017.72 1017.50 1016.66 1017.11 1017.22 1017.66 1017.65 1017.60 1017.60 1017.63 1017.71
1011.75 1011.73 1011.86 1012.67 1012.99 1013.36 1013.60 1013.76 1014.06 1014.24 1014.48 1014.61 1014.87 1015.13 1015.41 1015.48 1015.66 1015.80 1015.91 1016.11 1016.19 1016.42 1016.58 1016.77 1017.04 1017.35 1017.52 1017.64 1017.79 1017.89 1017.98 1018.07 1018.04 1017.50 1017.30 1017.21 1017.22 1018.01 1018.09 1018.07 1018.12 1018.11 1018.10
1011.87 1011.80 1012.13 1012.77 1013.04 1013.23 1013.56 1013.74 1013.98 1014.22 1014.43 1014.62 1014.90 1015.14 1015.43 1015.55 1015.69 1015.92 1016.10 1016.32 1016.51 1016.72 1016.91 1017.11 1017.39 1017.55 1017.73 1017.80 1017.93 1018.11 1018.26 1018.34 1018.24 1017.64 1017.64 1018.08 1017.72 1018.51 1018.52 1018.54 1018.52 1018.51 1018.50
1013.02 1012.27 1012.01 1012.82 1013.11 1013.24 1013.42 1013.70 1013.97 1014.20 1014.38 1014.67 1014.96 1015.24 1015.46 1015.56 1015.72 1015.97 1016.29 1016.48 1016.67 1016.96 1017.24 1017.45 1017.63 1017.77 1017.88 1017.99 1018.05 1018.25 1018.46 1018.55 1017.86 1017.87 1017.92 1018.00 1018.24 1018.73 1018.80 1018.83 1018.81 1018.77 1018.76
1013.80 1013.13 1012.20 1012.76 1013.17 1013.47 1013.68 1013.76 1013.94 1014.24 1014.47 1014.65 1014.94 1015.20 1015.51 1015.66 1015.76 1016.05 1016.23 1016.49 1016.73 1017.03 1017.31 1017.63 1017.82 1017.96 1018.06 1018.04 1018.16 1018.44 1018.66 1018.70 1018.22 1018.02 1018.12 1018.15 1018.81 1018.85 1018.92 1018.99 1018.99 1018.98 1018.99
1013.83 1013.46 1012.59 1012.55 1012.95 1013.45 1013.72 1013.88 1014.06 1014.17 1014.48 1014.67 1014.92 1015.20 1015.40 1015.62 1015.82 1016.07 1016.37 1016.47 1016.80 1017.14 1017.38 1017.61 1017.96 1018.18 1018.30 1018.37 1018.49 1018.71 1018.88 1018.83 1018.05 1018.08 1018.23 1018.24 1018.98 1018.95 1019.06 1019.11 1019.13 1019.15 1019.17
1014.10 1013.74 1013.27 1012.86 1012.66 1012.83 1013.15 1013.79 1014.03 1014.28 1014.44 1014.71 1014.90 1015.21 1015.45 1015.64 1015.85 1016.04 1016.22 1016.57 1016.90 1017.22 1017.50 1017.66 1017.88 1018.21 1018.49 1018.62 1018.83 1018.99 1019.08 1019.05 1018.08 1018.36 1018.31 1018.44 1019.10 1019.05 1019.13 1019.19 1019.23 1019.29 1019.33
1014.17 1014.06 1013.72 1013.27 1012.93 1012.77 1012.83 1013.10 1013.89 1014.13 1014.49 1014.67 1015.00 1015.26 1015.42 1015.24 1015.42 1015.69 1016.09 1016.61 1016.91 1017.23 1017.54 1017.78 1017.94 1018.16 1018.47 1018.76 1018.97 1019.12 1019.19 1018.17 1018.09 1018.14 1018.22 1018.99 1019.15 1019.06 1019.15 1019.21 1019.25 1019.32 1019.36
1014.06 1014.07 1014.02 1013.74 1013.43 1013.12 1012.96 1012.90 1013.25 1013.43 1013.94 1014.10 1014.41 1014.62 1014.85 1014.73 1014.71 1015.04 1015.79 1016.48 1016.87 1017.21 1017.54 1017.77 1017.97 1018.20 1018.42 1017.88 1018.44 1019.08 1018.48 1018.13 1018.14 1018.17 1018.25 1018.99 1019.15 1018.99 1019.11 1019.29 1019.30 1019.32 1019.41
1014.23 1014.03 1013.95 1013.75 1013.44 1013.24 1012.99 1013.04 1012.87 1012.86 1013.25 1013.47 1013.69 1014.12 1014.26 1014.30 1014.70 1015.10 1015.84 1016.45 1016.55 1017.23 1017.26 1017.68 1017.91 1017.83 1017.75 1017.62 1017.73 1017.87 1017.92 1018.04 1018.03 1018.13 1018.33 1019.00 1019.15 1019.08 1019.01 1019.17 1019.28 1019.34 1019.34
1013.74 1013.69 1013.56 1013.50 1013.30 1013.03 1013.14 1012.86 1012.63 1012.71 1012.89 1013.24 1013.57 1013.74 1014.03 1014.14 1014.30 1014.68 1015.17 1015.84 1015.96 1016.19 1016.33 1016.87 1017.21 1017.23 1017.56 1017.74 1017.70 1017.72 1017.85 1017.92 1017.90 1017.95 1018.02 1018.81 1019.00 1019.02 1018.94 1018.93 1019.05 1019.13 1019.13
1013.24 1013.27 1013.22 1013.22 1012.99 1012.79 1012.73 1012.90 1012.54 1012.30 1012.52 1012.73 1013.15 1013.31 1013.37 1013.54 1013.92 1014.13 1014.51 1015.03 1015.58 1015.64 1015.78 1016.36 1016.74 1017.11 1017.51 1017.45 1017.61 1017.67 1017.63 1017.64 1017.67 1017.75 1017.82 1018.43 1018.83 1018.90 1018.84 1018.77 1018.65 1018.66 1018.69
1012.71 1012.51 1012.81 1012.77 1012.67 1012.40 1012.32 1012.40 1012.40 1012.09 1011.79 1012.13 1012.53 1012.81 1013.13 1013.11 1013.51 1013.77 1013.94 1014.30 1014.78 1015.23 1015.59 1015.79 1015.99 1016.34 1016.77 1017.19 1017.38 1017.46 1017.47 1017.42 1017.50 1017.52 1017.53 1017.56 1018.30 1018.57 1018.59 1018.51 1018.43 1018.33 1018.28
1011.90 1011.87 1012.10 1012.23 1012.24 1012.10 1011.98 1011.95 1012.03 1011.93 1011.69 1012.01 1012.27 1012.42 1012.74 1013.15 1013.16 1013.48 1013.83 1013.96 1014.33 1014.78 1015.37 1015.89 1016.19 1016.54 1016.77 1016.86 1017.05 1017.06 1017.20 1017.22 1017.26 1017.30 1017.33 1017.35 1017.35 1017.98 1018.14 1018.12 1018.03 1018.07 1018.05
1011.58 1011.41 1011.48 1011.71 1011.70 1011.60 1011.56 1011.59 1011.71 1011.67 1011.60 1011.74 1011.91 1012.17 1012.61 1012.82 1012.99 1013.30 1013.69 1013.69 1013.98 1014.45 1015.01 1015.49 1015.86 1016.18 1016.55 1016.70 1016.79 1016.82 1016.94 1016.76 1016.95 1016.91 1016.88 1016.98 1017.10 1017.00 1017.30 1017.56 1017.59 1017.64 1017.64
1010.89 1010.80 1010.83 1011.06 1011.17 1011.09 1010.97 1011.10 1011.17 1011.46 1011.56 1011.51 1011.67 1012.02 1012.06 1012.47 1012.83 1013.31 1013.51 1013.31 1013.76 1014.34 1015.19 1015.58 1015.88 1016.14 1016.08 1016.57 1016.50 1016.57 1016.60 1016.40 1016.20 1016.25 1016.25 1016.43 1016.57 1016.74 1016.56 1016.63 1017.03 1017.14 1017.18
1010.29 1010.05 1010.11 1010.20 1010.46 1010.57 1010.48 1010.62 1010.87 1010.93 1011.19 1011.11 1011.13 1011.39 1012.04 1011.98 1012.47 1012.90 1013.34 1013.39 1013.66 1014.33 1014.80 1015.38 1015.81 1015.75 1015.94 1015.76 1015.89 1016.13 1016.09 1016.05 1015.80 1015.88 1015.87 1015.83 1015.96 1016.05 1016.26 1016.25 1016.29 1016.33 1016.61
1009.77 1009.63 1009.42 1009.44 1009.65 1009.95 1009.74 1009.80 1010.37 1010.41 1010.63 1010.77 1010.65 1010.69 1011.08 1011.81 1012.03 1012.30 1013.07 1013.42 1013.55 1013.99 1014.22 1014.51 1014.92 1015.09 1015.63 1015.96 1016.07 1015.97 1015.79 1015.37 1015.42 1015.18 1015.31 1015.23 1015.29 1015.41 1015.50 1015.62 1015.84 1015.92 1015.80
1009.25 1009.05 1009.03 1008.97 1009.15 1009.35 1009.21 1009.08 1009.67 1010.11 1010.16 1010.27 1010.30 1010.29 1010.52 1011.05 1011.54 1011.73 1012.32 1012.68 1013.16 1013.42 1013.82 1014.07 1014.46 1014.74 1014.65 1015.16 1015.08 1015.36 1014.86 1014.50 1014.25 1014.13 1014.42 1014.39 1014.40 1014.75 1014.72 1015.13 1015.22 1015.45 1015.49
1008.53 1008.44 1008.30 1008.36 1008.59 1008.77 1008.97 1009.04 1009.39 1009.73 1009.95 1010.01 1010.13 1010.21 1010.10 1010.32 1010.84 1011.26 1011.96 1012.38 1012.75 1013.03 1013.13 1013.62 1013.82 1013.88 1013.74 1014.14 1014.55 1014.20 1013.86 1013.32 1013.31 1013.61 1013.76 1013.37 1014.07 1014.16 1014.45 1014.48 1014.87 1015.04 1015.10
1007.82 1007.85 1007.82 1007.81 1008.03 1008.33 1008.54 1008.72 1009.01 1009.22 1009.30 1009.46 1009.67 1009.88 1009.86 1010.10 1010.57 1010.97 1011.38 1011.91 1012.25 1012.50 1012.75 1012.75 1013.21 1013.14 1013.24 1013.15 1013.82 1013.75 1013.01 1013.09 1013.07 1013.06 1013.01 1012.66 1013.85 1014.26 1014.08 1014.14 1014.40 1014.47 1014.60
1007.61 1007.35 1007.35 1007.38 1007.51 1007.71 1007.96 1008.06 1008.42 1009.08 1008.94 1008.94 1009.22 1009.24 1009.45 1009.94 1010.36 1010.54 1010.85 1011.21 1011.72 1011.98 1012.21 1012.57 1012.62 1012.64 1012.63 1012.60 1012.51 1013.03 1013.19 1013.25 1013.44 1013.29 1012.71 1012.96 1014.22 1013.93 1014.10 1014.01 1013.89 1014.02 1013.70
1007.20 1006.86 1006.73 1006.87 1006.93 1007.13 1007.37 1007.65 1007.83 1008.53 1008.80 1008.76 1008.70 1008.98 1009.06 1009.38 1009.84 1010.21 1010.45 1010.68 1010.87 1011.15 1011.48 1011.74 1011.97 1011.97 1012.01 1011.93 1011.94 1012.22 1012.37 1012.71 1012.82 1012.99 1013.10 1012.97 1013.21 1013.20 1013.63 1013.62 1013.09 1013.88 1013.54
Thickness
5765 5768 5767 5766 5763 5763 5765 5763 5763 5762 5761 5760 5759 5758 5757 5757 5755 5754 5751 5750 5749 5748 5749 5748 5748 5747 5745 5744 5742 5742 5742 5741 5740 5740 5741 5740 5739 5738 5736 5736 5737 5736 5732
5763 5765 5762 5762 5759 5759 5760 5760 5759 5759 5757 5757 5755 5755 5754 5754 5753 5752 5750 5749 5748 5747 5747 5747 5745 5744 5742 5740 5739 5739 5738 5737 5736 5737 5737 5737 5736 5735 5734 5734 5734 5732 5730
5762 5764 5760 5758 5756 5754 5755 5755 5755 5755 5754 5754 5753 5751 5751 5750 5750 5749 5748 5747 5746 5744 5743 5743 5742 5741 5739 5737 5736 5735 5734 5733 5733 5734 5735 5737 5734 5732 5731 5730 5729 5729 5727
5758 5760 5759 5755 5752 5750 5750 5751 5751 5750 5750 5750 5750 5748 5748 5747 5747 5746 5746 5744 5744 5742 5741 5739 5738 5737 5735 5733 5732 5731 5730 5730 5729 5731 5736 5732 5731 5727 5727 5726 5726 5724 5722
5754 5755 5755 5751 5749 5747 5746 5746 5745 5746 5745 5746 5745 5745 5743 5744 5743 5743 5743 5741 5740 5739 5738 5736 5734 5732 5731 5730 5729 5728 5727 5726 5726 5728 5729 5729 5729 5723 5722 5721 5720 5719 5719
5749 5750 5750 5747 5745 5744 5743 5742 5741 5740 5741 5742 5741 5740 5739 5740 5739 5739 5738 5737 5736 5734 5733 5732 5729 5728 5727 5727 5726 5724 5724 5723 5723 5725 5724 5721 5723 5717 5717 5716 5716 5715 5714
5735 5742 5745 5742 5740 5740 5740 5739 5738 5736 5736 5736 5736 5736 5735 5735 5735 5734 5733 5733 5732 5730 5728 5726 5724 5724 5723 5722 5722 5721 5719 5719 5722 5722 5721 5719 5717 5714 5713 5712 5712 5711 5710
5724 5731 5739 5737 5735 5734 5734 5734 5734 5732 5732 5731 5731 5730 5730 5730 5730 5730 5730 5729 5728 5726 5724 5722 5721 5719 5718 5718 5717 5716 5716 5715 5717 5718 5717 5716 5711 5710 5709 5708 5708 5706 5705
5716 5722 5730 5733 5731 5730 5729 5729 5729 5729 5728 5727 5726 5725 5725 5725 5726 5725 5724 5725 5722 5720 5719 5718 5716 5715 5713 5712 5712 5710 5710 5710 5714 5714 5712 5712 5707 5706 5705 5705 5703 5702 5701
5706 5712 5719 5725 5729 5729 5728 5725 5724 5724 5724 5723 5723 5721 5720 5720 5720 5720 5719 5719 5716 5715 5713 5712 5711 5710 5708 5707 5705 5704 5704 5704 5709 5708 5708 5707 5703 5702 5701 5700 5699 5698 5696
5698 5702 5708 5714 5719 5725 5725 5725 5721 5720 5718 5718 5717 5716 5716 5716 5716 5716 5715 5713 5711 5710 5708 5707 5706 5705 5704 5702 5701 5700 5700 5705 5705 5705 5704 5700 5698 5697 5696 5695 5695 5693 5691
5688 5693 5698 5703 5708 5714 5717 5721 5720 5719 5716 5716 5714 5715 5713 5716 5717 5715 5711 5707 5706 5704 5702 5701 5701 5699 5699 5702 5699 5696 5699 5702 5701 5701 5699 5695 5693 5693 5692 5690 5689 5688 5686
5679 5685 5689 5693 5699 5704 5710 5712 5716 5718 5717 5715 5715 5713 5713 5713 5711 5709 5704 5701 5700 5697 5697 5695 5695 5696 5697 5699 5698 5698 5698 5697 5697 5696 5695 5691 5688 5688 5688 5686 5685 5684 5682
5673 5678 5683 5686 5690 5695 5699 5704 5708 5712 5712 5711 5710 5710 5709 5708 5709 5707 5704 5699 5699 5697 5696 5694 5693 5694 5693 5692 5693 5694 5694 5693 5693 5693 5692 5688 5686 5684 5684 5684 5682 5680 5679
5668 5670 5674 5679 5683 5687 5692 5694 5701 5705 5707 5708 5706 5706 5708 5708 5706 5705 5702 5699 5696 5695 5694 5691 5689 5687 5686 5688 5688 5689 5690 5691 5690 5689 5689 5686 5683 5681 5680 5680 5680 5678 5677
5661 5666 5666 5671 5675 5679 5684 5688 5692 5698 5704 5703 5702 5702 5702 5703 5701 5702 5702 5699 5695 5693 5690 5689 5688 5686 5685 5683 5683 5684 5685 5685 5685 5686 5685 5685 5682 5679 5677 5676 5675 5674 5673
5656 5659 5659 5661 5665 5671 5676 5681 5683 5689 5695 5694 5696 5697 5697 5696 5697 5696 5696 5695 5692 5689 5685 5683 5681 5679 5678 5678 5678 5678 5679 5679 5680 5681 5681 5680 5680 5677 5675 5673 5672 5669 5668
5648 5650 5652 5654 5657 5661 5665 5670 5674 5678 5684 5687 5689 5690 5689 5689 5690 5690 5690 5690 5687 5685 5683 5680 5679 5676 5674 5673 5673 5674 5674 5675 5674 5674 5675 5675 5674 5674 5673 5670 5668 5666 5664
5641 5644 5645 5646 5649 5653 5657 5660 5665 5667 5671 5677 5679 5681 5684 5683 5684 5681 5682 5685 5681 5680 5675 5673 5671 5670 5671 5667 5669 5669 5670 5672 5673 5672 5671 5669 5668 5666 5667 5667 5665 5663 5661
5630 5635 5636 5638 5640 5642 5647 5651 5655 5660 5662 5667 5671 5673 5673 5678 5677 5675 5675 5676 5675 5672 5671 5667 5663 5664 5665 5667 5666 5665 5667 5667 5667 5667 5667 5665 5662 5662 5661 5660 5661 5659 5658
5618 5621 5626 5625 5628 5630 5638 5642 5643 5650 5654 5658 5665 5668 5670 5668 5673 5672 5668 5667 5667 5667 5667 5666 5665 5663 5657 5655 5653 5656 5658 5662 5662 5665 5663 5663 5661 5658 5658 5655 5654 5652 5652
5600 5606 5610 5613 5613 5617 5625 5633 5634 5636 5644 5650 5655 5661 5663 5662 5664 5669 5664 5665 5663 5663 5661 5661 5659 5657 5659 5656 5654 5650 5652 5657 5663 5665 5660 5661 5659 5653 5654 5650 5648 5647 5644
5583 5586 5591 5595 5599 5605 5609 5615 5620 5622 5630 5635 5641 5647 5654 5655 5657 5659 5656 5656 5655 5656 5658 5655 5655 5654 5656 5655 5651 5650 5646 5651 5655 5657 5653 5659 5651 5650 5646 5646 5642 5638 5637
5570 5571 5574 5577 5581 5586 5591 5599 5603 5609 5618 5628 5634 5636 5641 5645 5646 5649 5649 5649 5651 5651 5651 5653 5651 5652 5651 5651 5646 5648 5652 5650 5646 5642 5647 5652 5642 5638 5640 5639 5635 5633 5631
5557 5561 5562 5564 5568 5573 5578 5585 5591 5595 5608 5616 5621 5626 5631 5633 5634 5637 5640 5644 5643 5645 5645 5643 5646 5647 5647 5646 5646 5641 5638 5637 5635 5632 5634 5635 5626 5629 5628 5630 5630 5627 5630
5546 5553 5558 5557 5560 5564 5568 5573 5581 5585 5593 5601 5609 5614 5621 5626 5629 5631 5633 5637 5641 5641 5641 5641 5641 5642 5643 5643 5640 5636 5632 5625 5625 5622 5619 5624 5622 5623 5619 5621 5626 5619 5623